Oakland, MD

3:20 AM EST on November 18, 2019 (GMT -0500)
Oakland

Weather History for K2G4 - October, 2019

Change the Weather History Date:

Tuesday, October 22, 2019

  Actual Average (KMGW) Record (KMGW)
Temperature  
Mean Temperature 48 °F -  
Max Temperature 51 °F 63 °F 87 °F (1894)
Min Temperature 44 °F 42 °F 19 °F (1930)
Degree Days  
Heating Degree Days 18    
Moisture  
Dew Point 49 °F    
Average Humidity 97    
Maximum Humidity 100    
Minimum Humidity 76    
Precipitation  
Precipitation 0.00 in - - ()
Sea Level Pressure  
Sea Level Pressure 29.87 in    
Wind  
Wind Speed 9 mph ()    
Max Wind Speed 18 mph    
Max Gust Speed 24 mph    
Visibility 6.6 miles    
Events      
Averages and records for this station are not official NWS values.
T = Trace of Precipitation, MM = Missing Value Source: Averaged Metar Reports

Daily Weather History Graph

Daily Weather History Graph

Search for Another Location

Airport or City:

Astronomy

Oct. 22, 2019 Rise Set
Actual Time 7:34 AM EDT 6:28 PM EDT
Civil Twilight 7:07 AM EDT 6:55 PM EDT
Nautical Twilight 6:35 AM EDT 7:27 PM EDT
Astronomical Twilight 6:04 AM EDT 7:58 PM EDT
Moon 12:44 AM EDT (10/22) 3:34 PM EDT (10/22)
Length of Visible Light 11h 48m
Length of Day
10h 54m
Last Quarter, 37% of the Moon is Illuminated
Oct 22
Last Quarter
Oct 27
New
Nov 4
First Quarter
Nov 12
Full
Nov 19
Last Quarter

Hourly Weather History & Observations

Time (EDT) Temp. Windchill Dew Point Humidity Pressure Visibility Wind Dir Wind Speed Gust Speed Precip Events Conditions
12:00 AM 51.8 °F - 51.8 °F 100% 29.97 in 10.0 mi SE 11.5 mph 18.4 mph N/A   Clear
12:20 AM 51.8 °F - 51.8 °F 100% 29.97 in 10.0 mi SE 10.4 mph - N/A   Clear
12:40 AM 50.0 °F - 50.0 °F 100% 29.97 in 10.0 mi SE 10.4 mph - N/A   Clear
1:00 AM 51.8 °F - 51.8 °F 100% 29.96 in 10.0 mi SE 9.2 mph - N/A   Clear
1:20 AM 51.8 °F - 51.8 °F 100% 29.96 in 10.0 mi SE 11.5 mph - N/A   Clear
1:40 AM 50.0 °F - 50.0 °F 100% 29.95 in 10.0 mi SE 11.5 mph 17.3 mph N/A   Clear
2:00 AM 51.8 °F - 51.8 °F 100% 29.94 in 10.0 mi SE 12.7 mph 16.1 mph N/A   Scattered Clouds
2:20 AM 51.8 °F - 51.8 °F 100% 29.93 in 10.0 mi SE 12.7 mph - N/A   Scattered Clouds
2:40 AM 51.8 °F - 51.8 °F 100% 29.93 in 10.0 mi SE 11.5 mph 16.1 mph N/A   Mostly Cloudy
3:00 AM 51.8 °F - 51.8 °F 100% 29.93 in 10.0 mi SE 11.5 mph - N/A   Overcast
3:20 AM 51.8 °F - 51.8 °F 100% 29.91 in 7.0 mi SE 13.8 mph 18.4 mph N/A   Overcast
3:40 AM 51.8 °F - 51.8 °F 100% 29.90 in 7.0 mi SE 10.4 mph 18.4 mph N/A   Overcast
4:00 AM 51.8 °F - 51.8 °F 100% 29.90 in 7.0 mi SE 12.7 mph 16.1 mph N/A   Overcast
4:20 AM 51.8 °F - 51.8 °F 100% 29.89 in 7.0 mi SE 12.7 mph 18.4 mph N/A   Overcast
4:40 AM 51.8 °F - 51.8 °F 100% 29.88 in 7.0 mi SE 12.7 mph 18.4 mph N/A   Overcast
5:00 AM 51.8 °F - 51.8 °F 100% 29.88 in 7.0 mi SE 11.5 mph 18.4 mph N/A   Overcast
5:20 AM 51.8 °F - 51.8 °F 100% 29.89 in 7.0 mi SE 12.7 mph 20.7 mph N/A   Overcast
5:40 AM 51.8 °F - 51.8 °F 100% 29.89 in 5.0 mi SE 12.7 mph 18.4 mph N/A   Overcast
6:00 AM 51.8 °F - 51.8 °F 100% 29.88 in 4.0 mi SE 13.8 mph 18.4 mph N/A   Overcast
6:20 AM 51.8 °F - 51.8 °F 100% 29.88 in 4.0 mi SE 12.7 mph 19.6 mph N/A   Overcast
6:40 AM 51.8 °F - 51.8 °F 100% 29.87 in 3.0 mi SE 10.4 mph 19.6 mph N/A   Overcast
7:00 AM 51.8 °F - 51.8 °F 100% 29.87 in 1.5 mi SE 9.2 mph 16.1 mph N/A   Overcast
7:20 AM 51.8 °F - 51.8 °F 100% 29.86 in 0.8 mi SE 15.0 mph 20.7 mph N/A   Overcast
7:40 AM 51.8 °F - 51.8 °F 100% 29.86 in 0.8 mi SE 13.8 mph 19.6 mph N/A   Overcast
8:00 AM 51.8 °F - 51.8 °F 100% 29.84 in 0.2 mi SE 18.4 mph 24.2 mph N/A   Overcast
8:20 AM 51.8 °F - 51.8 °F 100% 29.84 in 0.2 mi SE 13.8 mph 21.9 mph N/A   Overcast
8:40 AM 51.8 °F - 51.8 °F 100% 29.84 in 0.2 mi SE 15.0 mph 20.7 mph N/A   Overcast
9:00 AM 51.8 °F - 51.8 °F 100% 29.85 in 0.2 mi SE 16.1 mph 21.9 mph N/A   Overcast
9:40 AM 51.8 °F - 51.8 °F 100% 29.86 in 0.2 mi SE 13.8 mph 20.7 mph N/A   Overcast
10:00 AM 51.8 °F - 51.8 °F 100% 29.84 in 0.2 mi SE 11.5 mph 17.3 mph N/A   Overcast
10:20 AM 51.8 °F - 51.8 °F 100% 29.85 in 0.2 mi SSE 8.1 mph 16.1 mph N/A   Overcast
10:40 AM 51.8 °F - 51.8 °F 100% 29.85 in 0.2 mi SE 13.8 mph - N/A   Overcast
11:00 AM 51.8 °F - 51.8 °F 100% 29.87 in 3.0 mi West 6.9 mph - N/A   Overcast
11:20 AM 50.0 °F - 50.0 °F 100% 29.87 in 1.5 mi West 8.1 mph - N/A   Overcast
11:40 AM 50.0 °F - 50.0 °F 100% 29.86 in 1.8 mi West 4.6 mph - N/A   Overcast
12:00 PM 50.0 °F - 50.0 °F 100% 29.88 in 1.8 mi West 3.5 mph - N/A   Overcast
12:20 PM 50.0 °F - 50.0 °F 100% 29.86 in 1.2 mi Calm Calm - N/A   Overcast
12:40 PM 50.0 °F - 50.0 °F 100% 29.86 in 1.0 mi WSW 3.5 mph - N/A   Overcast
1:00 PM 50.0 °F - 50.0 °F 100% 29.85 in 2.0 mi SW 3.5 mph - N/A   Overcast
1:20 PM 50.0 °F - 50.0 °F 100% 29.84 in 3.0 mi SW 9.2 mph - N/A   Overcast
1:40 PM 50.0 °F - 50.0 °F 100% 29.84 in 3.0 mi WSW 5.8 mph - N/A   Overcast
2:00 PM 50.0 °F - 50.0 °F 100% 29.86 in 3.0 mi WSW 8.1 mph - N/A   Overcast
2:20 PM 48.2 °F - 48.2 °F 100% 29.86 in 4.0 mi WSW 6.9 mph - N/A   Overcast
2:40 PM 48.2 °F - 48.2 °F 100% 29.83 in 10.0 mi SSW 6.9 mph - N/A   Mostly Cloudy
3:00 PM 48.2 °F - 48.2 °F 100% 29.81 in 10.0 mi South 5.8 mph - N/A   Scattered Clouds
3:20 PM 48.2 °F - 48.2 °F 100% 29.77 in 10.0 mi South 5.8 mph - N/A   Clear
3:40 PM 50.0 °F - 50.0 °F 100% 29.78 in 10.0 mi South 6.9 mph - N/A   Clear
4:00 PM 50.0 °F - 50.0 °F 100% 29.80 in 10.0 mi SSW 6.9 mph - N/A   Clear
4:20 PM 51.8 °F - 50.0 °F 94% 29.82 in 10.0 mi SW 9.2 mph - N/A   Clear
4:40 PM 50.0 °F - 44.6 °F 82% 29.82 in 10.0 mi SW 5.8 mph - N/A   Scattered Clouds
5:00 PM 50.0 °F - 46.4 °F 87% 29.83 in 10.0 mi WSW 6.9 mph - N/A   Scattered Clouds
5:20 PM 51.8 °F - 44.6 °F 76% 29.83 in 10.0 mi SW 6.9 mph - N/A   Clear
5:40 PM 50.0 °F - 44.6 °F 82% 29.84 in 10.0 mi WSW 5.8 mph - N/A   Scattered Clouds
6:00 PM 50.0 °F - 44.6 °F 82% 29.84 in 10.0 mi WSW 5.8 mph - N/A   Scattered Clouds
6:20 PM 46.4 °F 42.9 °F 44.6 °F 93% 29.86 in 10.0 mi SW 6.9 mph - N/A   Clear
6:40 PM 46.4 °F 44.3 °F 44.6 °F 93% 29.86 in 10.0 mi SW 4.6 mph - N/A   Scattered Clouds
7:00 PM 46.4 °F 44.3 °F 44.6 °F 93% 29.86 in 10.0 mi SW 4.6 mph - N/A   Scattered Clouds
7:20 PM 46.4 °F 43.5 °F 44.6 °F 93% 29.87 in 10.0 mi SW 5.8 mph - N/A   Clear
7:40 PM 46.4 °F 43.5 °F 44.6 °F 93% 29.87 in 10.0 mi SW 5.8 mph - N/A   Clear
8:00 PM 46.4 °F 43.5 °F 44.6 °F 93% 29.87 in 10.0 mi SW 5.8 mph - N/A   Clear
8:20 PM 46.4 °F 42.9 °F 44.6 °F 93% 29.88 in 10.0 mi SW 6.9 mph - N/A   Clear
8:40 PM 44.6 °F 40.7 °F 44.6 °F 100% 29.88 in 10.0 mi SW 6.9 mph - N/A   Clear
9:00 PM 46.4 °F 41.9 °F 44.6 °F 93% 29.88 in 10.0 mi WSW 9.2 mph - N/A   Clear
9:20 PM 46.4 °F 42.9 °F 44.6 °F 93% 29.89 in 10.0 mi WSW 6.9 mph - N/A   Clear
9:40 PM 46.4 °F 42.9 °F 44.6 °F 93% 29.89 in 10.0 mi WSW 6.9 mph - N/A   Clear
10:00 PM 46.4 °F 42.9 °F 44.6 °F 93% 29.90 in 10.0 mi WSW 6.9 mph - N/A   Clear
10:20 PM 46.4 °F 42.4 °F 44.6 °F 93% 29.90 in 10.0 mi WSW 8.1 mph - N/A   Clear
10:40 PM 44.6 °F 40.2 °F 42.8 °F 93% 29.91 in 10.0 mi West 8.1 mph - N/A   Clear
11:20 PM 44.6 °F 39.7 °F 41.0 °F 87% 29.91 in 10.0 mi West 9.2 mph - N/A   Clear